LX1BS-13 Weather Reports


time (UTC)temp
C
wind
direction
speed
KPH
gust
KPH
rain 1hr
cm
rain 24hr
cm
rain mn
cm
humidity
%
barometer
mb
20260502231610 14 0 0.0 1.6 0.00 0.00 0.00 61 1014.4
20260502230057 14 0 0.0 3.2 0.00 0.00 0.00 62 1014.5
20260502224601 14 0 0.0 0.0 0.00 0.00 0.00 62 1014.5
20260502223101 15 0 0.0 3.2 0.00 0.00 0.00 61 1014.5
20260502221558 15 0 0.0 0.0 0.00 0.00 0.00 60 1014.7
20260502220100 15 0 0.0 1.6 0.00 0.00 0.00 59 1014.6
20260502214558 15 0 0.0 0.0 0.00 0.00 0.00 58 1014.6
20260502213109 15 0 0.0 0.0 0.00 0.00 0.00 57 1014.6
20260502211606 16 0 0.0 3.2 0.00 0.00 0.00 56 1014.7
20260502210058 16 0 0.0 3.2 0.00 0.00 0.00 56 1014.7
20260502204618 16 0 0.0 3.2 0.00 0.00 0.00 55 1014.7
20260502203105 16 0 0.0 1.6 0.00 0.00 0.00 55 1014.7
20260502201603 16 0 0.0 1.6 0.00 0.00 0.00 54 1014.7
20260502200100 17 0 0.0 1.6 0.00 0.00 0.00 54 1014.8
20260502194600 17 0 0.0 1.6 0.00 0.00 0.00 53 1014.7
20260502193103 18 45 0.0 1.6 0.00 0.00 0.00 51 1014.8
20260502191556 18 45 0.0 3.2 0.00 0.00 0.00 50 1014.6
20260502190100 18 45 1.6 3.2 0.00 0.00 0.00 48 1014.5
20260502184606 19 45 0.0 4.8 0.00 0.00 0.00 47 1014.5
20260502183104 19 56 0.0 3.2 0.00 0.00 0.00 47 1014.4
20260502181607 20 0 0.0 3.2 0.00 0.00 0.00 46 1014.5
20260502180107 20 0 0.0 3.2 0.00 0.00 0.00 45 1014.5
20260502170109 21 63 1.6 4.8 0.00 0.00 0.00 45 1014.6
20260502163102 22 0 3.2 8.0 0.00 0.00 0.00 44 1014.7
20260502161600 22 32 0.0 8.0 0.00 0.00 0.00 42 1014.9
20260502151611 22 320 1.6 14.5 0.00 0.00 0.00 47 1015.5
20260502123100 22 260 11.3 20.9 0.00 0.00 0.00 54 1017.8
20260502121557 22 253 9.7 22.5 0.00 0.00 0.00 55 1018.1
20260502120104 23 247 4.8 22.5 0.00 0.00 0.00 54 1018.2
20260502114559 22 242 8.0 14.5 0.00 0.00 0.00 52 1018.3
20260502113059 22 251 6.4 14.5 0.00 0.00 0.00 53 1018.5
20260502111623 22 295 6.4 14.5 0.00 0.00 0.00 51 1018.8
20260502110100 22 259 3.2 17.7 0.00 0.00 0.00 52 1018.9
20260502104559 21 261 6.4 14.5 0.00 0.00 0.00 51 1019.1
20260502103110 21 252 6.4 14.5 0.00 0.00 0.00 50 1019.2
20260502101612 21 333 4.8 11.3 0.00 0.00 0.00 49 1019.5
20260502090105 18 217 0.0 3.2 0.00 0.00 0.00 66 1019.9
20260502070101 11 267 0.0 3.2 0.00 0.00 0.00 74 1020.9
20260502064603 11 0 0.0 4.8 0.00 0.00 0.00 75 1020.6
20260502063100 11 267 1.6 3.2 0.00 0.00 0.00 77 1020.5
20260502061557 9 0 0.0 3.2 0.00 0.00 0.00 77 1020.5
20260502060101 8 0 0.0 1.6 0.00 0.00 0.00 80 1020.8
20260502054604 8 55 0.0 3.2 0.00 0.00 0.00 79 1021.1
20260502053102 7 38 0.0 3.2 0.00 0.00 0.00 79 1021.3
20260502051601 7 0 1.6 4.8 0.00 0.00 0.00 81 1021.4
20260502050101 7 0 0.0 1.6 0.00 0.00 0.00 82 1020.9
20260502044559 6 0 0.0 0.0 0.00 0.00 0.00 80 1020.8
20260502043106 6 0 0.0 0.0 0.00 0.00 0.00 79 1020.8
20260502041558 6 0 0.0 1.6 0.00 0.00 0.00 78 1020.7
20260502040057 6 0 0.0 4.8 0.00 0.00 0.00 78 1020.6
20260502034601 6 0 0.0 4.8 0.00 0.00 0.00 76 1020.6
20260502033059 6 21 0.0 3.2 0.00 0.00 0.00 79 1020.8
20260502031559 6 0 0.0 3.2 0.00 0.00 0.00 81 1021.2
20260502030101 6 261 3.2 6.4 0.00 0.00 0.00 79 1021.5
20260502024558 6 0 0.0 0.0 0.00 0.00 0.00 78 1020.9
20260502023102 6 0 0.0 0.0 0.00 0.00 0.00 76 1020.9
20260502021559 7 0 0.0 0.0 0.00 0.00 0.00 75 1020.9
20260502020059 6 0 0.0 3.2 0.00 0.00 0.00 76 1021.0
20260502014557 7 352 0.0 1.6 0.00 0.00 0.00 73 1021.2
20260502013100 7 0 0.0 1.6 0.00 0.00 0.00 71 1021.3
20260502011604 7 0 0.0 3.2 0.00 0.00 0.00 72 1021.1
20260502010057 7 0 0.0 3.2 0.00 0.00 0.00 74 1021.3
20260502004609 7 288 0.0 3.2 0.00 0.00 0.00 74 1021.5
20260502003059 7 288 1.6 3.2 0.00 0.00 0.00 72 1021.5
20260502001558 7 0 0.0 1.6 0.00 0.00 0.00 71 1021.3
20260502000113 8 0 0.0 0.0 0.00 0.00 0.00 69 1021.4
20260501234557 8 326 1.6 3.2 0.00 0.00 0.00 67 1021.5
20260501233107 9 0 0.0 1.6 0.00 0.00 0.00 64 1021.6